Location: Slidell
(30.2789°N, 89.7378°W)
Time: 05:40:37
(UTC-05:00)

Cosmos 2360 Rocket - Visible Passes

Search period start: 24 July 2014 00:00
Search period end: 03 August 2014 00:00
Orbit: 834 x 845 km, 71.0° (Epoch: 24 July)

Date Brightness Start Highest point End Pass type
(mag) Time Alt. Az. Time Alt. Az. Time Alt. Az.
24 Jul 4.2 21:24:04 10° NNE 21:26:25 13° ENE 21:27:50 12° ENE visible
24 Jul 2.8 23:05:17 10° NNW 23:09:36 52° NW 23:09:36 52° NW visible
25 Jul 4.2 21:08:53 10° NE 21:10:47 12° ENE 21:12:41 10° ENE visible
25 Jul 2.5 22:49:42 10° NNW 22:54:30 63° NW 22:54:30 63° NW visible
26 Jul 4.3 20:53:53 10° NE 20:55:10 11° NE 20:56:26 10° ENE visible
26 Jul 2.2 22:34:07 10° NNW 22:39:25 78° NW 22:39:25 78° NW visible
27 Jul 2.0 22:18:32 10° NNW 22:24:13 89° WSW 22:24:24 84° S visible
28 Jul 2.0 22:02:58 10° NNW 22:08:38 85° ENE 22:09:26 67° SSE visible
29 Jul 2.1 21:47:24 10° NNW 21:53:04 80° ENE 21:54:30 52° SSE visible
30 Jul 2.1 21:31:50 10° NNW 21:37:29 74° ENE 21:39:38 39° SE visible
31 Jul 2.2 21:16:16 10° NNW 21:21:55 69° ENE 21:24:50 29° SE visible
31 Jul 4.7 23:03:42 10° W 23:05:12 11° W 23:06:38 10° WSW visible
01 Aug 2.2 21:00:43 10° NNW 21:06:20 64° ENE 21:10:05 21° SE visible
01 Aug 4.7 22:47:33 10° WNW 22:49:40 12° W 22:51:47 10° WSW visible
02 Aug 2.3 20:45:10 10° N 20:50:45 59° ENE 20:55:25 15° SE visible
02 Aug 4.7 22:31:34 10° WNW 22:34:08 13° W 22:36:42 10° SW visible
